<?xml version="1.0" encoding="UTF-8" standalone="no" ?>
<gpx xmlns="http://www.topografix.com/GPX/1/1" xmlns:xsi="http://www.w3.org/2001/XMLSchema-instance" xsi:schemaLocation="http://www.topografix.com/GPX/1/1 http://www.topografix.com/GPX/1/1/gpx.xsd" version="1.1" creator="VisuGPX - https://www.visugpx.com">
  <metadata>
    <name>Aravis, séjour du RCMF</name>
    <desc><![CDATA[Aravis, séjour du RCMF]]></desc>
  </metadata>
  <trk>
    <name><![CDATA[Chalets des Auges]]></name>
    <trkseg>
      <trkpt lat="45.97188" lon="6.35087">
        <ele>1404</ele>
        <time>2003-02-06T13:08:28Z</time>
      </trkpt>
      <trkpt lat="45.97227" lon="6.35055">
        <ele>1403</ele>
        <time>2003-02-06T13:08:28Z</time>
      </trkpt>
      <trkpt lat="45.97253" lon="6.3499">
        <ele>1398</ele>
        <time>2003-02-06T13:08:28Z</time>
      </trkpt>
      <trkpt lat="45.97147" lon="6.34789">
        <ele>1394</ele>
        <time>2003-02-06T13:08:28Z</time>
      </trkpt>
      <trkpt lat="45.9698" lon="6.34632">
        <ele>1404</ele>
        <time>2003-02-06T13:08:28Z</time>
      </trkpt>
      <trkpt lat="45.96856" lon="6.34235">
        <ele>1410</ele>
        <time>2003-02-06T13:08:28Z</time>
      </trkpt>
      <trkpt lat="45.96849" lon="6.34244">
        <ele>1410</ele>
        <time>2003-02-06T13:08:28Z</time>
      </trkpt>
      <trkpt lat="45.96849" lon="6.34222">
        <ele>1412</ele>
        <time>2003-02-06T13:08:28Z</time>
      </trkpt>
      <trkpt lat="45.96723" lon="6.34033">
        <ele>1413</ele>
        <time>2003-02-06T13:08:28Z</time>
      </trkpt>
      <trkpt lat="45.96678" lon="6.33939">
        <ele>1417</ele>
        <time>2003-02-06T13:08:28Z</time>
      </trkpt>
      <trkpt lat="45.96665" lon="6.33804">
        <ele>1425</ele>
        <time>2003-02-06T13:08:28Z</time>
      </trkpt>
      <trkpt lat="45.96639" lon="6.33767">
        <ele>1425</ele>
        <time>2003-02-06T13:08:28Z</time>
      </trkpt>
      <trkpt lat="45.9659" lon="6.33632">
        <ele>1426</ele>
        <time>2003-02-06T13:08:28Z</time>
      </trkpt>
      <trkpt lat="45.9654" lon="6.33424">
        <ele>1435</ele>
        <time>2003-02-06T13:08:28Z</time>
      </trkpt>
      <trkpt lat="45.96405" lon="6.33308">
        <ele>1441</ele>
        <time>2003-02-06T13:08:28Z</time>
      </trkpt>
      <trkpt lat="45.96323" lon="6.33098">
        <ele>1436</ele>
        <time>2003-02-06T13:08:28Z</time>
      </trkpt>
      <trkpt lat="45.96229" lon="6.3301">
        <ele>1436</ele>
        <time>2003-02-06T13:08:28Z</time>
      </trkpt>
      <trkpt lat="45.96186" lon="6.32858">
        <ele>1425</ele>
        <time>2003-02-06T13:08:28Z</time>
      </trkpt>
      <trkpt lat="45.96075" lon="6.32598">
        <ele>1418</ele>
        <time>2003-02-06T13:08:28Z</time>
      </trkpt>
      <trkpt lat="45.96012" lon="6.32557">
        <ele>1415</ele>
        <time>2003-02-06T13:08:28Z</time>
      </trkpt>
      <trkpt lat="45.95927" lon="6.32428">
        <ele>1416</ele>
        <time>2003-02-06T13:08:28Z</time>
      </trkpt>
      <trkpt lat="45.95796" lon="6.3233">
        <ele>1417</ele>
        <time>2003-02-06T13:08:28Z</time>
      </trkpt>
      <trkpt lat="45.95776" lon="6.32295">
        <ele>1417</ele>
        <time>2003-02-06T13:08:28Z</time>
      </trkpt>
      <trkpt lat="45.95699" lon="6.32225">
        <ele>1416</ele>
        <time>2003-02-06T13:08:28Z</time>
      </trkpt>
      <trkpt lat="45.95635" lon="6.32216">
        <ele>1417</ele>
        <time>2003-02-06T13:08:28Z</time>
      </trkpt>
      <trkpt lat="45.95598" lon="6.32257">
        <ele>1413</ele>
        <time>2003-02-06T13:08:28Z</time>
      </trkpt>
      <trkpt lat="45.95517" lon="6.32272">
        <ele>1405</ele>
        <time>2003-02-06T13:08:28Z</time>
      </trkpt>
      <trkpt lat="45.95463" lon="6.32323">
        <ele>1401</ele>
        <time>2003-02-06T13:08:28Z</time>
      </trkpt>
      <trkpt lat="45.95422" lon="6.32338">
        <ele>1402</ele>
        <time>2003-02-06T13:08:28Z</time>
      </trkpt>
      <trkpt lat="45.95302" lon="6.32272">
        <ele>1400</ele>
        <time>2003-02-06T13:08:28Z</time>
      </trkpt>
      <trkpt lat="45.95304" lon="6.3224">
        <ele>1398</ele>
        <time>2003-02-06T13:08:28Z</time>
      </trkpt>
      <trkpt lat="45.95259" lon="6.32212">
        <ele>1397</ele>
        <time>2003-02-06T13:08:28Z</time>
      </trkpt>
      <trkpt lat="45.95165" lon="6.32229">
        <ele>1403</ele>
        <time>2003-02-06T13:08:28Z</time>
      </trkpt>
      <trkpt lat="45.95139" lon="6.32265">
        <ele>1405</ele>
        <time>2003-02-06T13:08:28Z</time>
      </trkpt>
      <trkpt lat="45.94972" lon="6.32184">
        <ele>1421</ele>
        <time>2003-02-06T13:08:28Z</time>
      </trkpt>
      <trkpt lat="45.94944" lon="6.32197">
        <ele>1423</ele>
        <time>2003-02-06T13:08:28Z</time>
      </trkpt>
      <trkpt lat="45.94877" lon="6.32175">
        <ele>1423</ele>
        <time>2003-02-06T13:08:28Z</time>
      </trkpt>
      <trkpt lat="45.94776" lon="6.32248">
        <ele>1421</ele>
        <time>2003-02-06T13:08:28Z</time>
      </trkpt>
      <trkpt lat="45.94658" lon="6.32261">
        <ele>1423</ele>
        <time>2003-02-06T13:08:28Z</time>
      </trkpt>
      <trkpt lat="45.9456" lon="6.32317">
        <ele>1430</ele>
        <time>2003-02-06T13:08:28Z</time>
      </trkpt>
      <trkpt lat="45.94543" lon="6.32334">
        <ele>1461</ele>
        <time>2003-02-06T13:08:28Z</time>
      </trkpt>
      <trkpt lat="45.94467" lon="6.32454">
        <ele>1462</ele>
        <time>2003-02-06T13:08:28Z</time>
      </trkpt>
      <trkpt lat="45.94431" lon="6.32585">
        <ele>1478</ele>
        <time>2003-02-06T13:08:28Z</time>
      </trkpt>
      <trkpt lat="45.94427" lon="6.32658">
        <ele>1487</ele>
        <time>2003-02-06T13:08:28Z</time>
      </trkpt>
      <trkpt lat="45.94442" lon="6.3275">
        <ele>1500</ele>
        <time>2003-02-06T13:08:28Z</time>
      </trkpt>
      <trkpt lat="45.9442" lon="6.32939">
        <ele>1522</ele>
        <time>2003-02-06T13:08:28Z</time>
      </trkpt>
      <trkpt lat="45.94474" lon="6.32997">
        <ele>1540</ele>
        <time>2003-02-06T13:08:28Z</time>
      </trkpt>
      <trkpt lat="45.94573" lon="6.33207">
        <ele>1567</ele>
        <time>2003-02-06T13:08:28Z</time>
      </trkpt>
      <trkpt lat="45.94643" lon="6.33437">
        <ele>1566</ele>
        <time>2003-02-06T13:08:28Z</time>
      </trkpt>
      <trkpt lat="45.94695" lon="6.33533">
        <ele>1569</ele>
        <time>2003-02-06T13:08:28Z</time>
      </trkpt>
      <trkpt lat="45.9471" lon="6.33654">
        <ele>1573</ele>
        <time>2003-02-06T13:08:28Z</time>
      </trkpt>
      <trkpt lat="45.94748" lon="6.33703">
        <ele>1578</ele>
        <time>2003-02-06T13:08:28Z</time>
      </trkpt>
      <trkpt lat="45.94832" lon="6.33735">
        <ele>1595</ele>
        <time>2003-02-06T13:08:28Z</time>
      </trkpt>
      <trkpt lat="45.94899" lon="6.33791">
        <ele>1608</ele>
        <time>2003-02-06T13:08:28Z</time>
      </trkpt>
      <trkpt lat="45.94985" lon="6.33896">
        <ele>1634</ele>
        <time>2003-02-06T13:08:28Z</time>
      </trkpt>
      <trkpt lat="45.95012" lon="6.33954">
        <ele>1641</ele>
        <time>2003-02-06T13:08:28Z</time>
      </trkpt>
      <trkpt lat="45.95077" lon="6.33993">
        <ele>1654</ele>
        <time>2003-02-06T13:08:28Z</time>
      </trkpt>
      <trkpt lat="45.95122" lon="6.34051">
        <ele>1664</ele>
        <time>2003-02-06T13:08:28Z</time>
      </trkpt>
      <trkpt lat="45.95178" lon="6.34156">
        <ele>1673</ele>
        <time>2003-02-06T13:08:28Z</time>
      </trkpt>
      <trkpt lat="45.95193" lon="6.34149">
        <ele>1684</ele>
        <time>2003-02-06T13:08:28Z</time>
      </trkpt>
      <trkpt lat="45.95206" lon="6.34201">
        <ele>1682</ele>
        <time>2003-02-06T13:08:28Z</time>
      </trkpt>
      <trkpt lat="45.95225" lon="6.34224">
        <ele>1682</ele>
        <time>2003-02-06T13:08:28Z</time>
      </trkpt>
      <trkpt lat="45.95274" lon="6.34239">
        <ele>1680</ele>
        <time>2003-02-06T13:08:28Z</time>
      </trkpt>
      <trkpt lat="45.95384" lon="6.34383">
        <ele>1680</ele>
        <time>2003-02-06T13:08:28Z</time>
      </trkpt>
      <trkpt lat="45.95399" lon="6.34542">
        <ele>1693</ele>
        <time>2003-02-06T13:08:28Z</time>
      </trkpt>
      <trkpt lat="45.95381" lon="6.34647">
        <ele>1711</ele>
        <time>2003-02-06T13:08:28Z</time>
      </trkpt>
      <trkpt lat="45.95399" lon="6.34699">
        <ele>1725</ele>
        <time>2003-02-06T13:08:28Z</time>
      </trkpt>
      <trkpt lat="45.95431" lon="6.34662">
        <ele>1752</ele>
        <time>2003-02-06T13:08:28Z</time>
      </trkpt>
      <trkpt lat="45.95467" lon="6.34669">
        <ele>1755</ele>
        <time>2003-02-06T13:08:28Z</time>
      </trkpt>
      <trkpt lat="45.95517" lon="6.34799">
        <ele>1766</ele>
        <time>2003-02-06T13:08:28Z</time>
      </trkpt>
      <trkpt lat="45.95671" lon="6.34868">
        <ele>1794</ele>
        <time>2003-02-06T13:08:28Z</time>
      </trkpt>
      <trkpt lat="45.95748" lon="6.34975">
        <ele>1796</ele>
        <time>2003-02-06T13:08:28Z</time>
      </trkpt>
      <trkpt lat="45.95806" lon="6.35156">
        <ele>1793</ele>
        <time>2003-02-06T13:08:28Z</time>
      </trkpt>
      <trkpt lat="45.95824" lon="6.35415">
        <ele>1788</ele>
        <time>2003-02-06T13:08:28Z</time>
      </trkpt>
      <trkpt lat="45.95851" lon="6.35508">
        <ele>1787</ele>
        <time>2003-02-06T13:08:28Z</time>
      </trkpt>
      <trkpt lat="45.95856" lon="6.35591">
        <ele>1784</ele>
        <time>2003-02-06T13:08:28Z</time>
      </trkpt>
      <trkpt lat="45.95914" lon="6.35778">
        <ele>1783</ele>
        <time>2003-02-06T13:08:28Z</time>
      </trkpt>
      <trkpt lat="45.95935" lon="6.35986">
        <ele>1765</ele>
        <time>2003-02-06T13:08:28Z</time>
      </trkpt>
      <trkpt lat="45.95942" lon="6.35962">
        <ele>1766</ele>
        <time>2003-02-06T13:08:28Z</time>
      </trkpt>
      <trkpt lat="45.9595" lon="6.35967">
        <ele>1765</ele>
        <time>2003-02-06T13:08:28Z</time>
      </trkpt>
      <trkpt lat="45.95939" lon="6.35967">
        <ele>1765</ele>
        <time>2003-02-06T13:08:28Z</time>
      </trkpt>
      <trkpt lat="45.95948" lon="6.35958">
        <ele>1767</ele>
        <time>2003-02-06T13:08:28Z</time>
      </trkpt>
      <trkpt lat="45.95942" lon="6.35967">
        <ele>1768</ele>
        <time>2003-02-06T13:08:28Z</time>
      </trkpt>
      <trkpt lat="45.9595" lon="6.35958">
        <ele>1770</ele>
        <time>2003-02-06T13:08:28Z</time>
      </trkpt>
      <trkpt lat="45.95937" lon="6.35952">
        <ele>1764</ele>
        <time>2003-02-06T13:08:28Z</time>
      </trkpt>
      <trkpt lat="45.95942" lon="6.35969">
        <ele>1762</ele>
        <time>2003-02-06T13:08:28Z</time>
      </trkpt>
      <trkpt lat="45.95999" lon="6.35937">
        <ele>1763</ele>
        <time>2003-02-06T13:08:28Z</time>
      </trkpt>
      <trkpt lat="45.96008" lon="6.35879">
        <ele>1766</ele>
        <time>2003-02-06T13:08:28Z</time>
      </trkpt>
      <trkpt lat="45.96023" lon="6.35868">
        <ele>1767</ele>
        <time>2003-02-06T13:08:28Z</time>
      </trkpt>
      <trkpt lat="45.96092" lon="6.35879">
        <ele>1772</ele>
        <time>2003-02-06T13:08:28Z</time>
      </trkpt>
      <trkpt lat="45.96133" lon="6.35909">
        <ele>1780</ele>
        <time>2003-02-06T13:08:28Z</time>
      </trkpt>
      <trkpt lat="45.9619" lon="6.36059">
        <ele>1798</ele>
        <time>2003-02-06T13:08:28Z</time>
      </trkpt>
      <trkpt lat="45.96229" lon="6.3607">
        <ele>1806</ele>
        <time>2003-02-06T13:08:28Z</time>
      </trkpt>
      <trkpt lat="45.96291" lon="6.36147">
        <ele>1818</ele>
        <time>2003-02-06T13:08:28Z</time>
      </trkpt>
      <trkpt lat="45.96236" lon="6.36061">
        <ele>1822</ele>
        <time>2003-02-06T13:08:28Z</time>
      </trkpt>
      <trkpt lat="45.9621" lon="6.36048">
        <ele>1821</ele>
        <time>2003-02-06T13:08:28Z</time>
      </trkpt>
      <trkpt lat="45.96165" lon="6.35956">
        <ele>1815</ele>
        <time>2003-02-06T13:08:28Z</time>
      </trkpt>
      <trkpt lat="45.96019" lon="6.35915">
        <ele>1788</ele>
        <time>2003-02-06T13:08:28Z</time>
      </trkpt>
      <trkpt lat="45.95987" lon="6.35922">
        <ele>1784</ele>
        <time>2003-02-06T13:08:28Z</time>
      </trkpt>
      <trkpt lat="45.95933" lon="6.35971">
        <ele>1772</ele>
        <time>2003-02-06T13:08:28Z</time>
      </trkpt>
      <trkpt lat="45.95931" lon="6.3595">
        <ele>1750</ele>
        <time>2003-02-06T13:08:28Z</time>
      </trkpt>
      <trkpt lat="45.95944" lon="6.35954">
        <ele>1747</ele>
        <time>2003-02-06T13:08:28Z</time>
      </trkpt>
      <trkpt lat="45.95907" lon="6.35769">
        <ele>1766</ele>
        <time>2003-02-06T13:08:28Z</time>
      </trkpt>
      <trkpt lat="45.95836" lon="6.3552">
        <ele>1776</ele>
        <time>2003-02-06T13:08:28Z</time>
      </trkpt>
      <trkpt lat="45.95802" lon="6.35087">
        <ele>1787</ele>
        <time>2003-02-06T13:08:28Z</time>
      </trkpt>
      <trkpt lat="45.9563" lon="6.34761">
        <ele>1793</ele>
        <time>2003-02-06T13:08:28Z</time>
      </trkpt>
      <trkpt lat="45.95437" lon="6.34634">
        <ele>1781</ele>
        <time>2003-02-06T13:08:28Z</time>
      </trkpt>
      <trkpt lat="45.95388" lon="6.34686">
        <ele>1777</ele>
        <time>2003-02-06T13:08:28Z</time>
      </trkpt>
      <trkpt lat="45.95362" lon="6.3454">
        <ele>1733</ele>
        <time>2003-02-06T13:08:28Z</time>
      </trkpt>
      <trkpt lat="45.95321" lon="6.34284">
        <ele>1687</ele>
        <time>2003-02-06T13:08:28Z</time>
      </trkpt>
      <trkpt lat="45.95349" lon="6.34254">
        <ele>1671</ele>
        <time>2003-02-06T13:08:28Z</time>
      </trkpt>
      <trkpt lat="45.9539" lon="6.341">
        <ele>1658</ele>
        <time>2003-02-06T13:08:28Z</time>
      </trkpt>
      <trkpt lat="45.95469" lon="6.33967">
        <ele>1644</ele>
        <time>2003-02-06T13:08:28Z</time>
      </trkpt>
      <trkpt lat="45.95487" lon="6.33913">
        <ele>1635</ele>
        <time>2003-02-06T13:08:28Z</time>
      </trkpt>
      <trkpt lat="45.95545" lon="6.33718">
        <ele>1558</ele>
        <time>2003-02-06T13:08:28Z</time>
      </trkpt>
      <trkpt lat="45.9565" lon="6.33761">
        <ele>1547</ele>
        <time>2003-02-06T13:08:28Z</time>
      </trkpt>
      <trkpt lat="45.95755" lon="6.33718">
        <ele>1539</ele>
        <time>2003-02-06T13:08:28Z</time>
      </trkpt>
      <trkpt lat="45.95787" lon="6.33679">
        <ele>1538</ele>
        <time>2003-02-06T13:08:28Z</time>
      </trkpt>
      <trkpt lat="45.9586" lon="6.33684">
        <ele>1533</ele>
        <time>2003-02-06T13:08:28Z</time>
      </trkpt>
      <trkpt lat="45.95963" lon="6.33651">
        <ele>1532</ele>
        <time>2003-02-06T13:08:28Z</time>
      </trkpt>
      <trkpt lat="45.96008" lon="6.33523">
        <ele>1525</ele>
        <time>2003-02-06T13:08:28Z</time>
      </trkpt>
      <trkpt lat="45.96049" lon="6.33461">
        <ele>1524</ele>
        <time>2003-02-06T13:08:28Z</time>
      </trkpt>
      <trkpt lat="45.96081" lon="6.33458">
        <ele>1520</ele>
        <time>2003-02-06T13:08:28Z</time>
      </trkpt>
      <trkpt lat="45.96225" lon="6.33533">
        <ele>1520</ele>
        <time>2003-02-06T13:08:28Z</time>
      </trkpt>
      <trkpt lat="45.96298" lon="6.33525">
        <ele>1456</ele>
        <time>2003-02-06T13:08:28Z</time>
      </trkpt>
      <trkpt lat="45.96347" lon="6.33598">
        <ele>1451</ele>
        <time>2003-02-06T13:08:28Z</time>
      </trkpt>
      <trkpt lat="45.9636" lon="6.33656">
        <ele>1446</ele>
        <time>2003-02-06T13:08:28Z</time>
      </trkpt>
      <trkpt lat="45.96399" lon="6.33722">
        <ele>1441</ele>
        <time>2003-02-06T13:08:28Z</time>
      </trkpt>
      <trkpt lat="45.96514" lon="6.34023">
        <ele>1426</ele>
        <time>2003-02-06T13:08:28Z</time>
      </trkpt>
      <trkpt lat="45.9665" lon="6.34038">
        <ele>1415</ele>
        <time>2003-02-06T13:08:28Z</time>
      </trkpt>
      <trkpt lat="45.9677" lon="6.34143">
        <ele>1409</ele>
        <time>2003-02-06T13:08:28Z</time>
      </trkpt>
      <trkpt lat="45.96821" lon="6.34205">
        <ele>1410</ele>
        <time>2003-02-06T13:08:28Z</time>
      </trkpt>
      <trkpt lat="45.96853" lon="6.34315">
        <ele>1411</ele>
        <time>2003-02-06T13:08:28Z</time>
      </trkpt>
      <trkpt lat="45.96926" lon="6.34512">
        <ele>1400</ele>
        <time>2003-02-06T13:08:28Z</time>
      </trkpt>
      <trkpt lat="45.96939" lon="6.34551">
        <ele>1399</ele>
        <time>2003-02-06T13:08:28Z</time>
      </trkpt>
      <trkpt lat="45.96946" lon="6.34576">
        <ele>1381</ele>
        <time>2003-02-06T13:08:28Z</time>
      </trkpt>
      <trkpt lat="45.96963" lon="6.34604">
        <ele>1381</ele>
        <time>2003-02-06T13:08:28Z</time>
      </trkpt>
      <trkpt lat="45.97025" lon="6.34686">
        <ele>1382</ele>
        <time>2003-02-06T13:08:28Z</time>
      </trkpt>
      <trkpt lat="45.97115" lon="6.34742">
        <ele>1404</ele>
        <time>2003-02-06T13:08:28Z</time>
      </trkpt>
      <trkpt lat="45.97107" lon="6.34763">
        <ele>1403</ele>
        <time>2003-02-06T13:08:28Z</time>
      </trkpt>
      <trkpt lat="45.97137" lon="6.34776">
        <ele>1402</ele>
        <time>2003-02-06T13:08:28Z</time>
      </trkpt>
      <trkpt lat="45.97244" lon="6.34933">
        <ele>1392</ele>
        <time>2003-02-06T13:08:28Z</time>
      </trkpt>
      <trkpt lat="45.97265" lon="6.35029">
        <ele>1391</ele>
        <time>2003-02-06T13:08:28Z</time>
      </trkpt>
      <trkpt lat="45.97259" lon="6.35051">
        <ele>1390</ele>
        <time>2003-02-06T13:08:28Z</time>
      </trkpt>
      <trkpt lat="45.97233" lon="6.35063">
        <ele>1391</ele>
        <time>2003-02-06T13:08:28Z</time>
      </trkpt>
      <trkpt lat="45.97201" lon="6.35117">
        <ele>1393</ele>
        <time>2003-02-06T13:08:28Z</time>
      </trkpt>
    </trkseg>
  </trk>
</gpx>